Regional Weather Roundup
Issued by NWS Grand Forks, ND

Home | Current Version | Previous Version | Text Only | Print | Product List | Glossary Off
Versions: 1 2 3 4 5 6 7 8 9 10 11 12 13 14 15 16 17 18 19 20 21 22 23 24 25 26 27 28 29 30 31 32 33 34 35 36 37 38 39 40 41 42 43 44 45 46 47 48 49 50

269
ASUS43 KFGF 022131
RWRFGF
PRAIRIE TO PINES  WEATHER ROUNDUP
NATIONAL WEATHER SERVICE EASTERN NORTH DAKOTA/GRAND FORKS ND
300 PM CST FRI DEC 02 2016

 **SATELLITE DATA USED TO AUGMENT SKY COVER AT AUTOMATED STATIONS**
 *****  WEATHER ACROSS EASTERN NORTH DAKOTA  *****

CITY           SKY/WX    TMP DP  RH WIND       PRES   REMARKS
GRAND FORKS    CLOUDY    33  21  61 NW9       30.25F
GRAND FRKS AFB CLOUDY    31  21  64 VRB2      30.25S
GRAND FRKS NWS   N/A     32 N/A N/A NW9         N/A  WCI  24
DEVILS LAKE    CLOUDY    30  20  66 SW5       30.23S
FARGO          CLOUDY    31  21  66 NW7       30.27R WCI  24
WAHPETON ARPT  CLOUDY    28  21  74 N7        30.29R WCI  21
$$

 ***** WEATHER ACROSS CENTRAL AND WESTERN NORTH DAKOTA  *****

CITY           SKY/WX    TMP DP  RH WIND       PRES   REMARKS
BISMARCK       CLOUDY    27  20  75 S7        30.24S WCI  19
MINOT          CLOUDY    29  24  82 S12       30.17F WCI  19
JAMESTOWN      CLOUDY    27  20  75 W7        30.24S WCI  19
MINOT AFB      CLOUDY    28  25  86 S9        30.17S WCI  20
GARRISON         N/A     27  22  81 S12       30.18F WCI  17
WILLISTON      CLOUDY    31  25  78 SW7       30.15F WCI  24
DICKINSON      CLOUDY    28  24  85 W3        30.14S
HETTINGER      SUNNY     31  25  78 W7        30.17F WCI  24
$$

 *****  OTHER AIRPORT OBSERVATIONS IN OUR AREA  *****

CITY           SKY/WX    TMP DP  RH WIND       PRES   REMARKS
WALHALLA         N/A     28  28 100 NE3       30.24S
GRAFTON AIRPOR CLOUDY    32  25  74 CALM      30.27S
VALLEY CITY AR CLOUDY    27  23  86 W3        30.27S
CANDO          CLOUDY    28  23  80 W8        30.25R WCI  20
CAVALIER APRT    N/A     32  27  80 S5        30.24S
GWINNER        CLOUDY    28  23  80 W5        30.28R WCI  23
SHEYENNE NWR     N/A     28  20  72 NW6       29.95S WCI  22
ROLLA          CLOUDY    25  23  93 SW9       30.20S WCI  15
 ***** THE ABOVE OBSERVATIONS ARE NON NWS ARE NOT QUALITY
       CONTROLLED AND MAY MIS-REPORT RAIN FOR SNOW...
$$

  *****  WEATHER ACROSS NORTHERN MINNESOTA  *****

CITY           SKY/WX    TMP DP  RH WIND       PRES   REMARKS
FLAG ISLAND    CLOUDY    23  19  86 W9        30.22S WCI  13
WARROAD        CLOUDY    25  21  86 NW5       30.23S WCI  19
ROSEAU         CLOUDY    27  21  80 SW8       30.23F WCI  18
HALLOCK        CLOUDY    30  25  80 CALM      30.25S
THF RVR FALLS  CLOUDY    28  22  78 NW9       30.25S WCI  19
BAUDETTE       CLOUDY    25  20  81 NW9       30.22S WCI  15
WASKISH        CLOUDY    25  23  93 NW3       30.23R
CROOKSTON      CLOUDY    30  25  80 NW6       30.27R WCI  24
STEPHEN NDAWN    N/A     30  25  80 NW3         N/A
GREENBUSH NDAW   N/A     27  23  86 N5          N/A  WCI  21
$$
  *****  WEATHER ACROSS CENTRAL AND WEST MINNESOTA  *****

CITY           SKY/WX    TMP DP  RH WIND       PRES   REMARKS
FOSSTON        CLOUDY    25  19  80 NW8       30.25R WCI  16
BEMIDJI        CLOUDY    24  20  86 NW8       30.23R WCI  15
PARK RAPIDS    CLOUDY    26  19  74 W3        30.22R
ELBOW LAKE     CLOUDY    26  20  80 W10       30.27R WCI  16
WADENA         CLOUDY    27  21  80 W6        30.23S WCI  20
DETROIT LAKES  CLOUDY    28  23  80 NW10      30.25S WCI  19
MOORHEAD       CLOUDY    28  21  74 N6        30.28S WCI  22
FERGUS FALLS   CLOUDY    27  19  74 N6        30.30S WCI  20
MORRIS MN      CLOUDY    28  21  74 NW9       30.26R WCI  20
STAPLES        CLOUDY    25  21  86 NW5       30.24R WCI  19
$$
  *****  WEATHER ELSEWHERE ACROSS MINNESOTA  *****

CITY           SKY/WX    TMP DP  RH WIND       PRES   REMARKS
DULUTH         CLOUDY    28  23  81 NW8       30.18S WCI  20
INTRNTL FALLS  CLOUDY    25  22  88 W6        30.21R WCI  18
ELY            CLOUDY    25  23  93 CALM      30.19R
CLOQUET        CLOUDY    28  23  80 NW6       30.20R WCI  22
WHEATON        CLOUDY   N/A N/A N/A N6        30.30R
BRAINERD       CLOUDY    27  21  78 NW8       30.24R WCI  19
HIBBING        CLOUDY    26  23  88 W8        30.19S WCI  18
ALEXANDRIA     CLOUDY    27  21  78 NW8       30.25R WCI  19
SAINT CLOUD    CLOUDY    29  23  78 NW9       30.24S WCI  20
MINNEAPOLIS    CLOUDY    33  23  66 NW6       30.25R
$$

  *****  WEATHER ACROSS SOUTH DAKOTA  *****

CITY           SKY/WX    TMP DP  RH WIND       PRES   REMARKS
SIOUX FALLS    CLOUDY    32  25  75 NW10      30.27R WCI  24
BROOKINGS      CLOUDY    28  21  75 NW12      30.25R WCI  18
WATERTOWN      CLOUDY    26  20  77 N6        30.24R WCI  19
HURON          CLOUDY    31  24  75 NW6       30.29R
SISSETON         N/A     28  20  71 NW8       30.27R WCI  20
ABERDEEN       CLOUDY    29  20  69 NW7       30.29R WCI  22
MITCHELL       CLOUDY    32  26  78 NW5       30.30S
PIERRE         CLOUDY    31  26  82 SW8       30.25R WCI  23
MOBRIDGE       CLOUDY    30  23  75 E6        30.22S WCI  24
RAPID CITY     MOSUNNY   40  23  50 N14       30.17F
$$

  *****  SOME WEATHER IN NEARBY STATES *****

CITY           SKY/WX    TMP DP  RH WIND       PRES   REMARKS
GLASGOW MT     MOSUNNY   37  26  64 SW6       30.08F
GREAT FALLS MT SUNNY     33  21  61 SW21      30.03F WCI  21
CHEYENNE WY    CLOUDY    29  18  63 SE9       30.13S WCI  20
SCOTTSBLUFF NE SUNNY     40  20  44 W6        30.19F
OMAHA NE       PTSUNNY   39  29  67 N9        30.30S
DES MOINES IA  CLOUDY    40  31  70 W5        30.27F
DAVENPORT IA   CLOUDY    37  28  70 NW12      30.26R
CHICAGO IL     CLOUDY    38  27  64 N9        30.21R
EAU CLAIRE WI  CLOUDY    32  23  69 NW8       30.22R WCI  25
LA CROSSE WI   CLOUDY    35  23  61 NW6       30.25R
$$

  *****  SOME NATIONAL WEATHER *****

CITY           SKY/WX    TMP DP  RH WIND       PRES   REMARKS
LA GUARDIA NY  MOCLDY    51  28  41 W18G25    29.87R
RALEIGH NC     PTCLDY    57  28  33 W12       30.09S
ATLANTA GA     MOSUNNY   59  25  27 N14       30.20S
NEW ORLEANS LA CLOUDY    63  44  50 E14       30.18R
OKLAHOMA CITY  PTSUNNY   56  32  40 NE9       30.14S
ALBUQUERQUE NM CLOUDY    47  18  31 E21       29.94F
SALT LAKE CITY MOSUNNY   36  23  59 NW10      30.22F
LOS ANGELES CA SUNNY     65  11  12 N22G32    29.99F
BOISE ID       SUNNY     36  25  64 SW6       30.36F
SEATTLE WA     CLOUDY    49  42  77 S15       30.17F
$$

*** WEATHER ACROSS MANITOBA...SASKATCHEWAN AND ONTARIO ***
                ***ONTARIO***

CITY           SKY/WX    TMP DP  RH WIND       PRES   REMARKS
GERALDTON      FLURRIES  25  23  93 NW8       30.09R WCI  16
THUNDER BAY    MOCLDY    32  25  74 NW7       30.17R
SIOUX LOOKOUT  CLOUDY    23  19  86 NW5       30.18R WCI  17
TORONTO        LGT RAIN  37  34  87 W18G24    29.89R
BIG TROUT LK   CLOUDY    19  19 100 NW6       30.22R WCI  11
PICKLE LAKE    FLURRIES  19  16  86 NW6       30.17R WCI  11
DRYDEN         CLOUDY    21  19  93 W5        30.18R WCI  15
KENORA         FLURRIES  18  16  93 SW5       30.21R WCI  11
$$
                *** MANITOBA***

CITY           SKY/WX    TMP DP  RH WIND       PRES   REMARKS
BRANDON        FLURRIES  28  25  86 W7        30.20S WCI  21
DAUPHIN        CLOUDY    28  27  93 SE5       30.19S WCI  23
ISLAND LAKE    FLURRIES  16  14  93 CALM      30.25S
PILOT MOUND      N/A     28  23  80 W3          N/A
THE PAS        CLOUDY    25  23  93 SE6       30.16F WCI  18
THOMPSON       FLURRIES  18  14  86 S3        30.21S
WINNIPEG       CLOUDY    27  23  86 W5        30.25S WCI  21
LYNN LAKE      CLOUDY    16  14  93 S6        30.11F WCI   7
CHURCHILL      CRYSTALS   9   5  85 SW8       30.22S WCI  -4
GILLAM         LGT SNOW  12   9  85 W7        30.26R WCI   2
$$
                ***SASKATCHEWAN***

CITY           SKY/WX    TMP DP  RH WIND       PRES   REMARKS
ESTEVAN        FLURRIES  28  27  93 S6        30.13F WCI  22
KINDERSLEY     CLOUDY    23  21  93 S14       29.95F WCI  11
LLOYDMINSTER   CLOUDY    25  25 100 S13       29.89F FOG     WCI  13
PRINCE ALBERT  FRZ DRZL  27  25  93 S3        30.06F FOG
REGINA         CLOUDY    27  23  86 S3        30.08F
YORKTON        FLURRIES  28  27  93 SE8       30.10F WCI  20
N. BATTLEFORD  CLOUDY    25  25 100 S9        30.01F WCI  15
LA RONGE       FLURRIES  25  21  86 S12       30.05F WCI  14
SASKATOON      FLURRIES  27  23  86 SW7       30.06F WCI  19
SWIFT CURRENT  CLOUDY    23  23 100 SW8       29.97F WCI  14
$$
NOTE: THESE ARE AUTOMATED STATIONS WITH LIMITED QUALITY CONTROL
      "FAIR" INDICATES FEW OR NO CLOUDS BELOW 12,000 FEET WITH NO
      SIGNIFICANT WEATHER AND/OR OBSTRUCTIONS TO VISIBILITY.
      SKY/WX - SKY CONDITION AND SIGNIFICANT WEATHER.
      TMP - AIR TEMPERATURE.    DP   - DEWPOINT TEMPERATURE.
      RH  - RELATIVE HUMIDITY.  PRES - PRESSURE.
      HX  - HEAT INDEX.         WCI  - WIND CHILL INDEX.
$




USA.gov is the U.S. government's official web portal to all federal, state and local government web resources and services.